Regional Weather Roundup
Issued by NWS Northern Indiana

Home | Current Version | Previous Version | Text Only | Print | Product List | Glossary Off
Versions: 1 2 3 4 5 6 7 8 9 10 11 12 13 14 15 16 17 18 19 20 21 22 23 24 25 26 27 28 29 30 31 32 33 34 35 36 37 38 39 40 41 42 43 44 45 46 47 48 49 50

000
ASUS43 KIWX 022100
RWRIWX

KIWX WEATHER ROUNDUP
NATIONAL WEATHER SERVICE NORTHERN INDIANA
400 PM EST MON MAR 02 2015

NOTE: "FAIR" INDICATES FEW OR NO CLOUDS BELOW 12,000 FEET WITH NO
SIGNIFICANT WEATHER AND/OR OBSTRUCTIONS TO VISIBILITY.

* THESE STATIONS ARE NOT UNDER NWS QUALITY CONTROL. THEY ALSO MAY NOT
  REPORT WEATHER SUCH AS PRECIPITATION OR FOG.

INZ001>027-022200-
NORTHERN INDIANA

CITY           SKY/WX    TMP DP  RH WIND       PRES   REMARKS
GARY*          PTSUNNY   30  16  55 NE8       30.46F WCI  23
SOUTH BEND     NOT AVBL
GOSHEN         SUNNY     27  14  58 SW8       30.44F WCI  19
ANGOLA*        SUNNY     28  16  59 W3        30.43F
FORT WAYNE     NOT AVBL
PERU/GRISSOM   SUNNY     27  15  60 SW5       30.44F WCI  21

$$
INZ028>050-022200-
CENTRAL INDIANA

CITY           SKY/WX    TMP DP  RH WIND       PRES   REMARKS
MUNCIE*        MOSUNNY   28  14  55 CALM      30.44F
INDIANAPOLIS   NOT AVBL

$$
MIZ043>046-050>051-056>058-064>065-071>073-077>080-022200-
SOUTHWEST LOWER MICHIGAN

CITY           SKY/WX    TMP DP  RH WIND       PRES   REMARKS
BATTLE CREEK   SUNNY     31  13  47 W10       30.42F WCI  22
BENTON HARBOR  SUNNY     25  17  72 VRB5      30.46F WCI  19
HOLLAND        MOSUNNY   28  14  55 W10       30.46S WCI  19
GRAND RAPIDS   MOSUNNY   27  14  58 W13       30.43S WCI  16
KALAMAZOO      SUNNY     29  15  56 W12       30.43F WCI  19

$$
OHZ001>008-015>018-024>025-022200-
NORTHWEST OHIO

CITY           SKY/WX    TMP DP  RH WIND       PRES   REMARKS
DEFIANCE       SUNNY     29  15  56 SW7       30.46F WCI  22
FINDLAY        SUNNY     24  16  71 SW6       30.45F WCI  17
TOLEDO EXPRESS SUNNY     28  16  60 W12       30.45F WCI  18
TOLEDO METCALF SUNNY     29  14  53 W9        30.46F WCI  20
LIMA           SUNNY     26  14  60 NW5       30.44F WCI  20

$$
AND FOR LAKE MICHIGAN COASTAL AND OPEN LAKE BUOY OBSERVATIONS

STATION/POSITION TEMP    WIND        PRES    VSBY  WAVE
                 AIR SEA DIR/SP/G                  HT/PER
                 (F)     (DEG/KT/KT) (MB)    (MI)  (FT/S)
CALUMET HARBOR    26      70/  8/ 10 1030.0F
MICHIGAN CITY     31     290/  2/  4   N/A
SAINT JOSEPH      29     290/  2/  6 1031.5F

$$
&&



USA.gov is the U.S. government's official web portal to all federal, state and local government web resources and services.